TimeEST,TemperatureF,Dew PointF,Humidity,Sea Level PressureIn,VisibilityMPH,Wind Direction,Wind SpeedMPH,Gust SpeedMPH,PrecipitationIn,Events,Conditions,WindDirDegrees,DateUTC
12:15 AM,20.7,18.1,90,29.88,7.0,North,3.5,-,N/A,Snow,Light Snow,10,2013-02-05 05:15:00
12:34 AM,19.9,17.2,89,29.88,7.0,NNW,4.6,-,N/A,Snow,Light Snow,340,2013-02-05 05:34:00
12:54 AM,19.9,17.2,89,29.87,7.0,North,5.8,-,N/A,Snow,Light Snow,10,2013-02-05 05:54:00
1:15 AM,19.9,17.2,89,29.86,7.0,North,5.8,-,N/A,,Overcast,10,2013-02-05 06:15:00
1:35 AM,19.8,17.4,91,29.86,7.0,North,5.8,-,N/A,,Overcast,350,2013-02-05 06:35:00
1:54 AM,19.8,17.4,91,29.86,7.0,North,4.6,-,N/A,,Overcast,360,2013-02-05 06:54:00
2:15 AM,19.6,17.2,91,29.87,7.0,North,3.5,-,N/A,,Overcast,360,2013-02-05 07:15:00
2:35 AM,18.9,16.7,91,29.89,7.0,NNW,5.8,-,N/A,,Overcast,340,2013-02-05 07:35:00
2:54 AM,18.1,15.6,90,29.89,10.0,Calm,Calm,-,N/A,,Mostly Cloudy,0,2013-02-05 07:54:00
3:15 AM,17.6,14.7,88,29.88,10.0,Calm,Calm,-,N/A,,Scattered Clouds,0,2013-02-05 08:15:00
3:34 AM,17.2,14.4,88,29.87,10.0,Calm,Calm,-,N/A,,Scattered Clouds,0,2013-02-05 08:34:00
3:54 AM,16.9,14.0,88,29.87,10.0,Calm,Calm,-,N/A,,Scattered Clouds,0,2013-02-05 08:54:00
4:15 AM,16.2,13.5,89,29.86,10.0,Calm,Calm,-,N/A,,Scattered Clouds,0,2013-02-05 09:15:00
4:34 AM,16.2,13.6,90,29.86,10.0,Calm,Calm,-,N/A,,Scattered Clouds,0,2013-02-05 09:34:00
4:55 AM,15.4,13.3,91,29.86,7.0,Calm,Calm,-,N/A,,Clear,0,2013-02-05 09:55:00
5:15 AM,14.9,12.9,92,29.86,7.0,Calm,Calm,-,N/A,,Clear,0,2013-02-05 10:15:00
5:34 AM,13.1,11.1,92,29.87,5.0,Calm,Calm,-,N/A,,Clear,0,2013-02-05 10:34:00
5:55 AM,12.7,10.6,91,29.87,2.5,Calm,Calm,-,N/A,,Clear,0,2013-02-05 10:55:00
6:15 AM,10.8,8.1,89,29.86,0.2,Calm,Calm,-,N/A,Fog,Light Freezing Fog,0,2013-02-05 11:15:00
6:34 AM,10.0,7.2,88,29.86,1.0,Calm,Calm,-,N/A,,Mostly Cloudy,0,2013-02-05 11:34:00
6:55 AM,8.1,5.4,89,29.87,4.0,Calm,Calm,-,N/A,,Clear,0,2013-02-05 11:55:00
7:15 AM,7.3,4.1,87,29.88,4.0,Calm,Calm,-,N/A,,Clear,0,2013-02-05 12:15:00
7:34 AM,6.3,3.0,87,29.87,3.0,Calm,Calm,-,N/A,,Clear,0,2013-02-05 12:34:00
7:55 AM,7.2,4.1,87,29.86,4.0,Calm,Calm,-,N/A,,Clear,0,2013-02-05 12:55:00
8:15 AM,8.1,5.4,89,29.88,5.0,Calm,Calm,-,N/A,,Clear,0,2013-02-05 13:15:00
8:34 AM,7.3,4.6,89,29.88,5.0,South,3.5,-,N/A,,Clear,180,2013-02-05 13:34:00
8:55 AM,13.5,11.7,93,29.88,5.0,South,3.5,-,N/A,,Clear,170,2013-02-05 13:55:00
9:14 AM,15.4,13.5,92,29.88,7.0,South,3.5,-,N/A,,Clear,170,2013-02-05 14:14:00
9:34 AM,16.2,14.5,93,29.87,5.0,South,4.6,-,N/A,,Clear,170,2013-02-05 14:34:00
9:55 AM,16.7,15.1,93,29.87,5.0,South,5.8,-,N/A,,Scattered Clouds,170,2013-02-05 14:55:00
10:14 AM,18.0,16.3,93,29.86,5.0,South,5.8,-,N/A,,Scattered Clouds,170,2013-02-05 15:14:00
10:35 AM,18.9,17.4,94,29.86,5.0,South,8.1,-,N/A,,Scattered Clouds,180,2013-02-05 15:35:00
10:55 AM,19.8,18.5,95,29.85,5.0,South,8.1,-,N/A,,Clear,190,2013-02-05 15:55:00
11:14 AM,19.9,18.7,95,29.85,5.0,South,10.4,-,N/A,,Clear,180,2013-02-05 16:14:00
11:35 AM,21.2,19.9,95,29.85,7.0,South,9.2,-,N/A,,Scattered Clouds,180,2013-02-05 16:35:00
11:55 AM,21.6,20.5,96,29.84,7.0,SSW,10.4,-,N/A,,Mostly Cloudy,200,2013-02-05 16:55:00
12:14 PM,22.5,19.9,90,29.83,10.0,SSW,8.1,11.5,N/A,,Overcast,200,2013-02-05 17:14:00
12:35 PM,23.4,18.1,80,29.82,10.0,South,8.1,-,N/A,,Overcast,190,2013-02-05 17:35:00
12:55 PM,24.1,18.3,79,29.81,10.0,South,9.2,-,N/A,,Overcast,190,2013-02-05 17:55:00
1:14 PM,24.6,18.1,76,29.79,10.0,SSW,8.1,-,N/A,,Overcast,200,2013-02-05 18:14:00
1:35 PM,25.2,17.1,71,29.80,10.0,SSW,8.1,-,N/A,,Overcast,210,2013-02-05 18:35:00
1:55 PM,25.0,18.0,75,29.79,10.0,SSW,11.5,17.3,N/A,,Overcast,210,2013-02-05 18:55:00
2:14 PM,25.5,18.9,76,29.78,10.0,SSW,6.9,-,N/A,,Overcast,200,2013-02-05 19:14:00
2:35 PM,26.4,19.6,75,29.77,7.0,South,10.4,-,N/A,,Overcast,190,2013-02-05 19:35:00
2:54 PM,27.7,19.6,72,29.77,7.0,SSW,11.5,-,N/A,,Overcast,210,2013-02-05 19:54:00
3:15 PM,27.9,19.4,71,29.77,7.0,SSW,10.4,-,N/A,,Mostly Cloudy,210,2013-02-05 20:15:00
3:35 PM,27.7,19.2,71,29.76,10.0,SSW,10.4,16.1,N/A,,Overcast,200,2013-02-05 20:35:00
3:54 PM,27.7,19.0,70,29.78,10.0,SSW,10.4,-,N/A,,Overcast,210,2013-02-05 20:54:00
4:15 PM,27.7,19.2,71,29.78,10.0,SW,9.2,-,N/A,,Overcast,220,2013-02-05 21:15:00
4:34 PM,27.0,21.0,78,29.79,1.8,SW,6.9,-,N/A,Snow,Light Snow,220,2013-02-05 21:34:00
4:54 PM,26.2,22.1,84,29.79,0.8,SW,6.9,-,N/A,Snow,Light Snow,230,2013-02-05 21:54:00
5:15 PM,25.9,23.9,92,29.79,0.8,SW,5.8,-,N/A,Snow,Light Snow,220,2013-02-05 22:15:00
5:34 PM,25.9,23.7,92,29.79,1.0,SW,9.2,-,N/A,Snow,Light Snow,230,2013-02-05 22:34:00
5:55 PM,25.5,23.7,93,29.80,2.5,SW,6.9,-,N/A,Snow,Light Snow,230,2013-02-05 22:55:00
6:15 PM,25.2,23.4,93,29.80,4.0,SW,6.9,-,N/A,Snow,Light Snow,230,2013-02-05 23:15:00
6:35 PM,25.3,23.5,93,29.81,7.0,SW,5.8,-,N/A,,Overcast,230,2013-02-05 23:35:00
6:54 PM,25.9,24.1,93,29.81,5.0,WSW,6.9,-,N/A,,Overcast,240,2013-02-05 23:54:00
7:15 PM,26.1,24.3,93,29.82,5.0,WSW,6.9,-,N/A,,Overcast,240,2013-02-06 00:15:00
7:35 PM,27.0,24.6,91,29.83,7.0,WSW,9.2,-,N/A,,Overcast,250,2013-02-06 00:35:00
7:54 PM,27.0,24.8,92,29.83,7.0,West,8.1,-,N/A,,Overcast,260,2013-02-06 00:54:00
8:15 PM,27.7,25.3,91,29.84,7.0,West,8.1,-,N/A,,Overcast,270,2013-02-06 01:15:00
8:34 PM,27.7,25.5,92,29.85,5.0,West,8.1,-,N/A,,Overcast,270,2013-02-06 01:34:00
8:55 PM,27.9,26.1,93,29.86,5.0,West,11.5,-,N/A,,Overcast,270,2013-02-06 01:55:00
9:15 PM,28.0,26.2,93,29.86,5.0,West,10.4,-,N/A,,Overcast,280,2013-02-06 02:15:00
9:35 PM,28.0,26.4,94,29.87,4.0,WNW,10.4,-,N/A,,Overcast,290,2013-02-06 02:35:00
10:15 PM,28.6,27.1,94,29.89,4.0,West,13.8,18.4,N/A,,Overcast,280,2013-02-06 03:15:00
10:34 PM,28.6,27.1,94,29.90,3.0,WNW,15.0,-,N/A,,Overcast,300,2013-02-06 03:34:00
10:55 PM,28.6,27.1,94,29.90,4.0,NW,11.5,-,N/A,,Overcast,310,2013-02-06 03:55:00
11:14 PM,28.0,26.4,94,29.91,7.0,NW,15.0,20.7,N/A,,Overcast,310,2013-02-06 04:14:00
11:34 PM,28.0,25.3,90,29.92,10.0,NW,17.3,21.9,N/A,,Overcast,320,2013-02-06 04:34:00
11:54 PM,28.0,25.0,88,29.93,10.0,NNW,15.0,18.4,N/A,,Overcast,330,2013-02-06 04:54:00